Flag for Spain Weather past 2 weeks in Barcelona, Barcelona, Spain

Now
70 °F

Passing clouds.


Feels Like: 70 °F
Forecast: 71 / 82 °F
Wind: 6 mph from Northwest

Location: Barcelona Airport

Current Time: Sep 16, 2014 at 3:34:26 AM

Latest Report: Sep 16, 2014 at 3:00 AM


Visibility: N/A

Pressure: 29.92 "Hg

Humidity: 73%

Dew point: 61 °F

Location of BarcelonaLocation

Historic Weather in Barcelona — Graph

°F

Barcelona temperature yesterday

Maximum temperature yesterday: 79 °F (at 12:30 PM)
Minimum temperature yesterday: 64 °F (at 12:30 AM)
Average temperature yesterday: 72 °F

Past Weeks' High & Low Weather Summary

 TemperatureHumidityPressure
High82 °F (Sep 6, 5:00 PM)100% (Sep 15, 1:00 AM)30.04 "Hg (Sep 15, 1:00 AM)
Low64 °F (Sep 15, 12:30 AM)51% (Sep 10, 11:00 AM)29.83 "Hg (Sep 11, 4:00 AM)
Average76 °F75%29.93 "Hg
* Reported Sep 1 2:00 AM — Sep 16 2:30 AM, Barcelona, Weather by CustomWeather, © 2014

Note: Actual official high and low records may vary slightly from our data, if they occured in-between our weather recording intervals... More about our weather records

Advertising

Barcelona weather history for previous 24 hours

 ConditionsComfort  
Time TempWeatherWind HumidityBarometerVisibility
2:30 AM
Sep 16
70 °FPassing clouds.7 mph78%29.92 "HgN/A
2:00 AM70 °FPassing clouds.5 mph83%29.92 "HgN/A
1:30 AM73 °FPassing clouds.5 mph74%29.92 "HgN/A
1:00 AM73 °FPassing clouds.5 mph74%29.92 "HgN/A
12:30 AM73 °FPassing clouds.6 mph78%29.92 "HgN/A
12:00 AM73 °FPassing clouds.7 mph74%29.92 "HgN/A
11:30 PM
Sep 15
73 °FPassing clouds.9 mph78%29.92 "HgN/A
11:00 PM75 °FPassing clouds.7 mph69%29.92 "HgN/A
10:30 PM75 °FPassing clouds.9 mph78%29.92 "HgN/A
10:00 PM75 °FPassing clouds.6 mph74%29.92 "HgN/A
9:30 PM75 °FPassing clouds.3 mph78%29.89 "HgN/A
9:00 PM75 °FScattered clouds.6 mph78%29.89 "HgN/A
8:30 PM75 °FScattered clouds.8 mph78%29.89 "HgN/A
8:00 PM75 °FScattered clouds.8 mph78%29.89 "HgN/A
7:30 PM75 °FScattered clouds.9 mph78%29.89 "HgN/A
7:00 PM75 °FPassing clouds.8 mph78%29.89 "HgN/A
6:30 PM77 °FPassing clouds.7 mph74%29.86 "HgN/A
6:00 PM77 °FPassing clouds.7 mph74%29.86 "HgN/A
5:30 PM77 °FPassing clouds.7 mph74%29.86 "HgN/A
5:00 PM77 °FPassing clouds.7 mph79%29.86 "HgN/A
4:30 PM77 °FPassing clouds.7 mph79%29.89 "HgN/A
4:00 PM77 °FPassing clouds.9 mph79%29.89 "HgN/A
3:30 PM77 °FPassing clouds.9 mph79%29.89 "HgN/A
3:00 PM79 °FPassing clouds.8 mph70%29.92 "HgN/A
2:30 PM79 °FPassing clouds.7 mph74%29.92 "HgN/A
2:00 PM79 °FPassing clouds.8 mph70%29.92 "HgN/A
1:30 PM79 °FPassing clouds.6 mph70%29.92 "HgN/A
1:00 PM79 °FPassing clouds.5 mph65%29.92 "HgN/A
12:30 PM79 °FPassing clouds.6 mph65%29.95 "HgN/A
12:00 PM77 °FPassing clouds.3 mph69%29.95 "HgN/A
11:30 AM77 °FPassing clouds.5 mph65%29.95 "HgN/A
11:00 AM75 °FPassing clouds.3 mph69%29.92 "HgN/A
10:30 AM73 °FPassing clouds.8 mph74%29.92 "HgN/A
10:00 AM72 °FPassing clouds.9 mph73%29.92 "HgN/A
9:30 AM70 °FPassing clouds.10 mph78%29.92 "HgN/A
9:00 AM68 °FPassing clouds.8 mph83%29.89 "HgN/A
8:30 AM66 °FPassing clouds.9 mph83%29.92 "HgN/A
8:00 AM66 °FPassing clouds.10 mph83%29.92 "HgN/A
7:30 AM66 °FPassing clouds.12 mph83%29.92 "HgN/A
7:00 AM66 °FPassing clouds.8 mph83%29.92 "HgN/A
6:30 AM66 °FPassing clouds.12 mph83%29.89 "HgN/A
6:00 AM66 °FPassing clouds.13 mph83%29.89 "HgN/A
5:30 AM66 °FPassing clouds.13 mph83%29.89 "HgN/A
5:00 AM66 °FPassing clouds.10 mph88%29.89 "HgN/A
4:30 AM66 °FPassing clouds.7 mph88%29.89 "HgN/A
4:00 AM66 °FPassing clouds.6 mph88%29.89 "HgN/A
3:30 AM68 °FPassing clouds.8 mph83%29.89 "HgN/A
3:00 AM68 °FPassing clouds.7 mph88%29.92 "HgN/A
Weather by CustomWeather, © 2014

See weather overviewHow to use our weather pages